Погода в Малмыже

Россия / Кировская область     56°31′28″N   50°40′41″E
темп.,
°C
ветер,
м/с
пор.,
м/с
влажн.,
%
обл.,
%
осадки,
мм/ч
давл.,
гПа
погр.,
м
26 сентября, вс
вс2600:00+7св118498 0.0 101010
03:00+7ссв1182100 0.0 100910
06:00+7в228695 0.1 100945
09:00+9юв3474100 0.1 1008295
12:00+12вюв236827 0.0 1008719
15:00+13в336892 0.0 1008533
18:00+10св4681100 0.0 1009171
21:00+9св3889100 0.1 1009280
27 сентября, пн
пн2700:00+8всв51082100 0.0 1009391
03:00+8всв61188100 0.1 1011654
06:00+7всв71091100 2.3 10121064
09:00+4всв81296100 2.8 1014932
12:00+3всв71396100 0.4 1016806
15:00+5всв71186100 0.5 10181022
18:00+5в71477100 0.2 10201124
21:00+4всв51380100 0.2 1022774
28 сентября, вт
вт2800:00+2св512792 0.0 1024465
03:00+1св512825 0.0 1025393
06:000св5118880 0.0 1026373
09:00+4всв696950 0.0 1027713
12:00+7всв675042 0.0 10271253
15:00+8св574816 0.0 10281370
18:00+3всв3772100 0.0 1029155
21:00+2ссв2571100 0.0 1030142
29 сентября, ср
ср2900:00+1ссв227798 0.0 103037
03:000ссв238466 0.0 103040
06:00−1ссв22895 0.0 103123
09:00+5ссв34615 0.0 1032478
12:00+8ссв23497 0.0 10311358
15:00+9с334620 0.0 10311513
18:00+4с11655 0.0 103110
21:00+3ссз11725 0.0 103210
30 сентября, чт
чт3000:00+2сз11785 0.0 103210
03:00+1сз118243 0.0 103210
06:00+3зсз1173100 0.0 103212
09:00+5з1368100 0.0 1032143
12:00+8зсз3464100 0.0 1031689
15:00+10сз3554100 0.0 10301304
18:00+7з376389 0.0 1029133
21:00+6з41072100 0.0 1028234